Madison, MN

7:51 AM CST on December 09, 2019 (GMT -0600)
Madison-Lac Qui Parle County

Weather History for KDXX - September, 2019

Change the Weather History Date:

Tuesday, September 17, 2019

  Actual Average (WUND) Record (WUND)
Temperature  
Mean Temperature 81 °F -  
Max Temperature 89 °F - - (-1)
Min Temperature 73 °F - - (-1)
Cooling Degree Days 16    
Growing Degree Days 31 (Base 50)    
Moisture  
Dew Point 70 °F    
Average Humidity 70    
Maximum Humidity 94    
Minimum Humidity 52    
Precipitation  
Precipitation 0.00 in - - ()
Sea Level Pressure  
Sea Level Pressure 29.80 in    
Wind  
Wind Speed 12 mph (South)    
Max Wind Speed 22 mph    
Max Gust Speed 31 mph    
Visibility 10 miles    
Events Rain , Thunderstorm    
Averages and records for this station are not official NWS values.
T = Trace of Precipitation, MM = Missing Value Source: NWS Daily Summary

Daily Weather History Graph

Daily Weather History Graph

Search for Another Location

Airport or City:

Astronomy

Sep. 17, 2019 Rise Set
Actual Time 7:05 AM CDT 7:32 PM CDT
Civil Twilight 6:36 AM CDT 8:01 PM CDT
Nautical Twilight 6:01 AM CDT 8:36 PM CDT
Astronomical Twilight 5:25 AM CDT 9:11 PM CDT
Moon 9:27 PM CDT (9/17) 10:18 AM CDT (9/17)
Length of Visible Light 13h 25m
Length of Day
12h 26m
Waning Gibbous, 89% of the Moon is Illuminated
Sep 17
Waning Gibbous
Sep 21
Last Quarter
Sep 28
New
Oct 5
First Quarter
Oct 13
Full

Hourly Weather History & Observations

Time (CDT) Temp. Heat Index Dew Point Humidity Pressure Visibility Wind Dir Wind Speed Gust Speed Precip Events Conditions
12:18 AM 77.0 °F - 71.6 °F 83% 29.86 in 10.0 mi SSE 9.2 mph - N/A   Clear
12:36 AM 77.0 °F - 71.6 °F 83% 29.86 in 10.0 mi South 9.2 mph - N/A   Clear
12:55 AM 77.0 °F - 71.6 °F 83% 29.86 in 10.0 mi SSE 9.2 mph - N/A   Clear
12:56 AM 77.0 °F - 71.6 °F 83% 29.86 in 10.0 mi SSE 9.2 mph - N/A   Clear
1:15 AM 77.0 °F - 71.6 °F 83% 29.86 in 10.0 mi South 8.1 mph - N/A   Clear
1:16 AM 77.0 °F - 71.6 °F 83% 29.86 in 10.0 mi South 9.2 mph - N/A   Clear
1:35 AM 78.8 °F - 71.6 °F 78% 29.86 in 10.0 mi SSE 9.2 mph - N/A   Clear
1:40 AM 78.8 °F - 71.6 °F 78% 29.87 in 10.0 mi South 6.9 mph - N/A   Clear
1:57 AM 78.8 °F - 71.6 °F 78% 29.87 in 10.0 mi South 6.9 mph - N/A   Scattered Clouds
2:15 AM 78.8 °F - 71.6 °F 78% 29.87 in 10.0 mi South 8.1 mph - N/A   Scattered Clouds
2:35 AM 78.8 °F - 71.6 °F 78% 29.88 in 10.0 mi SSW 8.1 mph - N/A   Scattered Clouds
2:55 AM 78.8 °F - 71.6 °F 78% 29.89 in 10.0 mi SW 5.8 mph - N/A Thunderstorm Scattered Clouds
2:56 AM 78.8 °F - 71.6 °F 78% 29.89 in 10.0 mi SW 4.6 mph - N/A Thunderstorm Scattered Clouds
3:18 AM 78.8 °F - 68.0 °F 69% 29.89 in 10.0 mi SSW 12.7 mph 19.6 mph N/A Rain , Thunderstorm Light Thunderstorms and Rain
3:37 AM 77.0 °F - 68.0 °F 74% 29.89 in 10.0 mi SSW 12.7 mph 23.0 mph N/A Rain , Thunderstorm Light Thunderstorms and Rain
3:56 AM 75.2 °F - 69.8 °F 83% 29.90 in 7.0 mi SSW 10.4 mph 28.8 mph N/A Rain , Thunderstorm Rain
4:16 AM 73.4 °F - 69.8 °F 88% 29.89 in 10.0 mi SSE 8.1 mph - N/A Rain , Thunderstorm Rain
4:35 AM 73.4 °F - 71.6 °F 94% 29.87 in 7.0 mi SE 8.1 mph - N/A Rain Light Rain
4:57 AM 73.4 °F - 71.6 °F 94% 29.84 in 7.0 mi ESE 11.5 mph - N/A Rain , Thunderstorm Light Thunderstorms and Rain
5:16 AM 73.4 °F - 71.6 °F 94% 29.82 in 10.0 mi ESE 16.1 mph - N/A   Overcast
5:35 AM 75.2 °F - 71.6 °F 89% 29.81 in 10.0 mi SSE 12.7 mph 20.7 mph N/A Rain Light Rain
5:36 AM 75.2 °F - 71.6 °F 89% 29.81 in 10.0 mi SSE 12.7 mph 20.7 mph N/A Rain Light Rain
5:55 AM 77.0 °F - 71.6 °F 83% 29.80 in 10.0 mi SSE 15.0 mph 21.9 mph N/A   Overcast
5:56 AM 77.0 °F - 71.6 °F 83% 29.80 in 10.0 mi SSE 16.1 mph 21.9 mph N/A Thunderstorm Mostly Cloudy
6:19 AM 77.0 °F - 69.8 °F 78% 29.81 in 10.0 mi South 18.4 mph 21.9 mph N/A Thunderstorm Scattered Clouds
6:36 AM 77.0 °F - 69.8 °F 78% 29.81 in 10.0 mi SSE 17.3 mph 23.0 mph N/A Thunderstorm Scattered Clouds
6:56 AM 75.2 °F - 69.8 °F 83% 29.82 in 10.0 mi SE 15.0 mph 21.9 mph N/A   Scattered Clouds
7:15 AM 75.2 °F - 71.6 °F 89% 29.82 in 10.0 mi SE 12.7 mph 20.7 mph N/A   Scattered Clouds
7:16 AM 75.2 °F - 71.6 °F 89% 29.82 in 10.0 mi SE 12.7 mph 20.7 mph N/A   Scattered Clouds
7:35 AM 75.2 °F - 69.8 °F 83% 29.82 in 10.0 mi SSE 12.7 mph 19.6 mph N/A   Scattered Clouds
7:39 AM 75.2 °F - 69.8 °F 83% 29.82 in 10.0 mi SSE 12.7 mph 19.6 mph N/A   Clear
7:58 AM 75.2 °F - 69.8 °F 83% 29.82 in 10.0 mi SSE 13.8 mph - N/A   Clear
8:15 AM 75.2 °F - 69.8 °F 83% 29.82 in 10.0 mi SSE 11.5 mph 16.1 mph N/A   Clear
8:36 AM 75.2 °F - 71.6 °F 89% 29.82 in 10.0 mi SE 11.5 mph - N/A   Clear
8:55 AM 75.2 °F - 71.6 °F 89% 29.82 in 10.0 mi SE 6.9 mph - N/A   Clear
8:56 AM 75.2 °F - 71.6 °F 89% 29.82 in 10.0 mi SE 8.1 mph - N/A   Clear
9:18 AM 78.8 °F - 71.6 °F 78% 29.81 in 10.0 mi South 8.1 mph - N/A   Clear
9:37 AM 80.6 °F 84.6 °F 71.6 °F 74% 29.80 in 10.0 mi South 15.0 mph 19.6 mph N/A   Clear
9:56 AM 82.4 °F 86.3 °F 69.8 °F 66% 29.80 in 10.0 mi South 16.1 mph 25.3 mph N/A   Clear
10:15 AM 82.4 °F 86.3 °F 69.8 °F 66% 29.80 in 10.0 mi South 18.4 mph 25.3 mph N/A   Clear
10:16 AM 82.4 °F 86.3 °F 69.8 °F 66% 29.80 in 10.0 mi South 19.6 mph 25.3 mph N/A   Clear
10:35 AM 82.4 °F 87.2 °F 71.6 °F 70% 29.80 in 10.0 mi South 20.7 mph 26.5 mph N/A   Clear
10:57 AM 82.4 °F 87.2 °F 71.6 °F 70% 29.80 in 10.0 mi South 19.6 mph 27.6 mph N/A   Clear
11:16 AM 84.2 °F 89.6 °F 71.6 °F 66% 29.80 in 10.0 mi South 18.4 mph 28.8 mph N/A   Clear
11:35 AM 84.2 °F 89.6 °F 71.6 °F 66% 29.80 in 10.0 mi South 18.4 mph 25.3 mph N/A   Clear
11:36 AM 84.2 °F 89.6 °F 71.6 °F 66% 29.80 in 10.0 mi South 16.1 mph 25.3 mph N/A   Clear
11:55 AM 86.0 °F 91.8 °F 71.6 °F 62% 29.80 in 10.0 mi South 19.6 mph 27.6 mph N/A   Clear
11:56 AM 86.0 °F 91.8 °F 71.6 °F 62% 29.80 in 10.0 mi South 21.9 mph 27.6 mph N/A   Clear
12:19 PM 87.8 °F 93.8 °F 71.6 °F 58% 29.79 in 10.0 mi South 19.6 mph 31.1 mph N/A   Clear
12:36 PM 87.8 °F 93.8 °F 71.6 °F 58% 29.79 in 10.0 mi South 21.9 mph 28.8 mph N/A   Clear
12:55 PM 87.8 °F 92.6 °F 69.8 °F 55% 29.79 in 10.0 mi South 19.6 mph 27.6 mph N/A   Clear
12:56 PM 87.8 °F 92.6 °F 69.8 °F 55% 29.79 in 10.0 mi South 21.9 mph 26.5 mph N/A   Clear
1:15 PM 87.8 °F 93.8 °F 71.6 °F 58% 29.79 in 10.0 mi South 19.6 mph 29.9 mph N/A   Clear
1:16 PM 87.8 °F 93.8 °F 71.6 °F 58% 29.79 in 10.0 mi South 21.9 mph 29.9 mph N/A   Clear
1:38 PM 89.6 °F 96.2 °F 71.6 °F 55% 29.78 in 10.0 mi South 18.4 mph 23.0 mph N/A   Clear
1:57 PM 89.6 °F 96.2 °F 71.6 °F 55% 29.78 in 10.0 mi South 15.0 mph 27.6 mph N/A   Clear
2:16 PM 89.6 °F 94.7 °F 69.8 °F 52% 29.77 in 10.0 mi South 18.4 mph 25.3 mph N/A   Clear
2:35 PM 89.6 °F 94.7 °F 69.8 °F 52% 29.77 in 10.0 mi South 18.4 mph 25.3 mph N/A   Clear
2:36 PM 89.6 °F 94.7 °F 69.8 °F 52% 29.77 in 10.0 mi South 17.3 mph 25.3 mph N/A   Clear
2:55 PM 89.6 °F 94.7 °F 69.8 °F 52% 29.77 in 10.0 mi South 20.7 mph 29.9 mph N/A   Clear
3:16 PM 89.6 °F 94.7 °F 69.8 °F 52% 29.77 in 10.0 mi South 18.4 mph 28.8 mph N/A   Clear
3:35 PM 89.6 °F 96.2 °F 71.6 °F 55% 29.76 in 10.0 mi South 18.4 mph 25.3 mph N/A   Clear
3:55 PM 89.6 °F 94.7 °F 69.8 °F 52% 29.76 in 10.0 mi South 16.1 mph 29.9 mph N/A   Clear
3:56 PM 89.6 °F 94.7 °F 69.8 °F 52% 29.76 in 10.0 mi South 16.1 mph 29.9 mph N/A   Clear
4:15 PM 89.6 °F 94.7 °F 69.8 °F 52% 29.75 in 10.0 mi South 20.7 mph 31.1 mph N/A   Clear
4:20 PM 89.6 °F 94.7 °F 69.8 °F 52% 29.75 in 10.0 mi South 17.3 mph 31.1 mph N/A   Clear
4:37 PM 89.6 °F 94.7 °F 69.8 °F 52% 29.75 in 10.0 mi South 20.7 mph 27.6 mph N/A   Clear
4:55 PM 89.6 °F 94.7 °F 69.8 °F 52% 29.75 in 10.0 mi South 18.4 mph 28.8 mph N/A   Clear
5:15 PM 89.6 °F 94.7 °F 69.8 °F 52% 29.75 in 10.0 mi South 15.0 mph 26.5 mph N/A   Clear
5:16 PM 89.6 °F 94.7 °F 69.8 °F 52% 29.75 in 10.0 mi South 16.1 mph 26.5 mph N/A   Clear
5:35 PM 87.8 °F 92.6 °F 69.8 °F 55% 29.75 in 10.0 mi South 15.0 mph 21.9 mph N/A   Clear
5:36 PM 87.8 °F 92.6 °F 69.8 °F 55% 29.75 in 10.0 mi South 15.0 mph 21.9 mph N/A   Clear
5:58 PM 87.8 °F 92.6 °F 69.8 °F 55% 29.75 in 10.0 mi South 15.0 mph 20.7 mph N/A   Clear
6:16 PM 87.8 °F 92.6 °F 69.8 °F 55% 29.75 in 10.0 mi South 16.1 mph 23.0 mph N/A   Clear
6:35 PM 87.8 °F 92.6 °F 69.8 °F 55% 29.75 in 10.0 mi South 15.0 mph 24.2 mph N/A   Clear
6:36 PM 87.8 °F 92.6 °F 69.8 °F 55% 29.75 in 10.0 mi South 16.1 mph 24.2 mph N/A   Clear
6:55 PM 84.2 °F 88.4 °F 69.8 °F 62% 29.75 in 10.0 mi South 12.7 mph 20.7 mph N/A   Clear
6:56 PM 84.2 °F 88.4 °F 69.8 °F 62% 29.75 in 10.0 mi South 10.4 mph 20.7 mph N/A   Clear
7:19 PM 84.2 °F 88.4 °F 69.8 °F 62% 29.75 in 10.0 mi South 13.8 mph 19.6 mph N/A   Clear
7:36 PM 82.4 °F 86.3 °F 69.8 °F 66% 29.75 in 10.0 mi South 12.7 mph - N/A   Clear
7:56 PM 82.4 °F 86.3 °F 69.8 °F 66% 29.75 in 10.0 mi SSE 11.5 mph 16.1 mph N/A   Clear
8:15 PM 80.6 °F 83.9 °F 69.8 °F 70% 29.76 in 10.0 mi SSE 12.7 mph - N/A   Clear
8:16 PM 80.6 °F 83.9 °F 69.8 °F 70% 29.76 in 10.0 mi SSE 12.7 mph - N/A   Clear
8:35 PM 80.6 °F 83.9 °F 69.8 °F 70% 29.77 in 10.0 mi SSE 10.4 mph - N/A   Clear
8:39 PM 80.6 °F 83.9 °F 69.8 °F 70% 29.77 in 10.0 mi SSE 11.5 mph - N/A   Clear
9:15 PM 80.6 °F 83.2 °F 68.0 °F 65% 29.77 in 10.0 mi SSE 12.7 mph 17.3 mph N/A   Clear
9:35 PM 78.8 °F - 69.8 °F 74% 29.77 in 10.0 mi SSE 11.5 mph - N/A   Clear
9:36 PM 78.8 °F - 69.8 °F 74% 29.77 in 10.0 mi SSE 12.7 mph - N/A   Clear
9:55 PM 78.8 °F - 68.0 °F 69% 29.77 in 10.0 mi SSE 12.7 mph 19.6 mph N/A   Clear
10:19 PM 78.8 °F - 68.0 °F 69% 29.77 in 10.0 mi SSE 12.7 mph - N/A   Clear
10:37 PM 78.8 °F - 69.8 °F 74% 29.77 in 10.0 mi SSE 10.4 mph - N/A   Clear
10:56 PM 77.0 °F - 69.8 °F 78% 29.76 in 10.0 mi SSE 9.2 mph - N/A   Clear
11:15 PM 77.0 °F - 69.8 °F 78% 29.76 in 10.0 mi SSE 10.4 mph - N/A   Clear
11:16 PM 77.0 °F - 69.8 °F 78% 29.76 in 10.0 mi SSE 10.4 mph - N/A   Clear
11:35 PM 77.0 °F - 69.8 °F 78% 29.75 in 10.0 mi SSE 9.2 mph - N/A   Clear
11:57 PM 78.8 °F - 69.8 °F 74% 29.75 in 10.0 mi SSE 10.4 mph 16.1 mph N/A   Clear